Weather History for Marshall, MI

Change the Weather History Date:

Wednesday, January 8, 2014

  Actual Average (KBTL) Record (KBTL)
Temperature  
Mean Temperature 1 °F 24 °F  
Max Temperature 15 °F 32 °F 57 °F (2008)
Min Temperature -13 °F 16 °F -4 °F (2014)
Degree Days  
Heating Degree Days 64 41  
Month to date heating degree days 328  
Since 1 July heating degree days 2928  
Cooling Degree Days 0 0  
Month to date cooling degree days 0  
Year to date cooling degree days 0  
Moisture  
Dew Point -3 °F    
Average Humidity 79    
Maximum Humidity 91    
Minimum Humidity 64    
Precipitation  
Precipitation 0.00 in 0.07 in 1.01 in (2008)
Month to date precipitation 0.53  
Year to date precipitation 0.53  
Sea Level Pressure  
Sea Level Pressure 30.34 in    
Wind  
Wind Speed 3 mph (SW)    
Max Wind Speed 8 mph    
Max Gust Speed -    
Visibility 9 miles    
Events Snow    
T = Trace of Precipitation, MM = Missing Value Source: NWS Daily Summary

Daily Weather History Graph

Daily Weather History Graph

Search for Another Location

Airport:

Trip Planner

Search our weather history database for the weather conditions in past years. The results will help you decide how hot, cold, wet, or windy it might be!

Date:

Astronomy

Jan. 08, 2014 Rise Set
Actual Time 8:08 AM EST 5:25 PM EST
Civil Twilight 7:36 AM EST 5:56 PM EST
Nautical Twilight 7:01 AM EST 6:31 PM EST
Astronomical Twilight 6:28 AM EST 7:05 PM EST
Moon 12:20 PM EST (1/8) 1:08 AM EST (1/8)
Length of Visible Light 10h 19m
Length of Day
9h 16m
First Quarter, 56% of the Moon is Illuminated
Jan 8
First Quarter
Jan 15
Full
Jan 24
Last Quarter
Jan 30
New
Feb 6
First Quarter

Hourly Weather History & Observations

Time (EST) Temp. Windchill Dew Point Humidity Pressure Visibility Wind Dir Wind Speed Gust Speed Precip Events Conditions
12:13 AM -3.5 °F -17.1 °F -8.5 °F 79% 30.26 in 10.0 mi SW 6.9 mph - N/A   Clear
12:34 AM -4.2 °F -14.8 °F -8.9 °F 80% 30.27 in 10.0 mi SW 4.6 mph - N/A   Clear
12:53 AM -5.1 °F -17.6 °F -9.4 °F 82% 30.28 in 10.0 mi SW 5.8 mph - N/A   Clear
1:13 AM -5.6 °F -14.3 °F -9.8 °F 82% 30.27 in 10.0 mi SW 3.5 mph - N/A   Clear
1:34 AM -6.3 °F -15.1 °F -9.8 °F 85% 30.27 in 10.0 mi SW 3.5 mph - N/A   Clear
1:53 AM -9.6 °F - -13.0 °F 85% 30.27 in 10.0 mi Calm Calm - N/A   Clear
2:14 AM -8.5 °F - -12.1 °F 84% 30.27 in 10.0 mi Calm Calm - N/A   Clear
2:34 AM -9.8 °F - -13.9 °F 82% 30.28 in 10.0 mi Calm Calm - N/A   Clear
2:53 AM -11.4 °F - -15.2 °F 83% 30.28 in 10.0 mi Calm Calm - N/A   Clear
3:14 AM -12.5 °F - -16.1 °F 84% 30.28 in 10.0 mi Calm Calm - N/A   Clear
3:34 AM -12.3 °F - -15.9 °F 84% 30.29 in 10.0 mi Calm Calm - N/A   Clear
3:53 AM -12.5 °F - -16.6 °F 82% 30.29 in 10.0 mi Calm Calm - N/A   Clear
4:14 AM -13.7 °F - -18.0 °F 81% 30.29 in 10.0 mi Calm Calm - N/A   Clear
4:34 AM -9.8 °F -19.0 °F -14.1 °F 81% 30.29 in 10.0 mi South 3.5 mph - N/A   Clear
4:53 AM -8.0 °F -19.2 °F -11.7 °F 84% 30.28 in 10.0 mi South 4.6 mph - N/A   Clear
5:14 AM -5.1 °F -13.6 °F -9.0 °F 83% 30.28 in 10.0 mi South 3.5 mph - N/A   Clear
5:34 AM -4.2 °F -12.6 °F -8.1 °F 83% 30.28 in 10.0 mi SSW 3.5 mph - N/A   Clear
5:53 AM -3.6 °F -14.1 °F -7.6 °F 83% 30.28 in 10.0 mi South 4.6 mph - N/A   Clear
6:14 AM -3.1 °F -11.4 °F -6.7 °F 85% 30.28 in 10.0 mi SSW 3.5 mph - N/A   Clear
6:34 AM -2.2 °F -12.5 °F -6.0 °F 84% 30.27 in 10.0 mi SSW 4.6 mph - N/A   Clear
6:53 AM -1.8 °F - -5.8 °F 83% 30.28 in 10.0 mi Calm Calm - N/A   Clear
7:14 AM -1.7 °F - -5.4 °F 84% 30.28 in 10.0 mi Calm Calm - N/A   Clear
7:34 AM -1.8 °F - -5.8 °F 83% 30.29 in 10.0 mi Calm Calm - N/A   Clear
7:53 AM -2.2 °F - -6.0 °F 84% 30.30 in 10.0 mi Calm Calm - N/A   Clear
8:14 AM -2.6 °F - -6.3 °F 84% 30.30 in 10.0 mi Calm Calm - N/A   Clear
8:34 AM -1.7 °F - -5.3 °F 85% 30.31 in 3.0 mi Calm Calm - N/A   Clear
8:53 AM -1.3 °F - -4.7 °F 85% 30.31 in 7.0 mi Calm Calm - N/A   Clear
9:14 AM -0.8 °F - -4.4 °F 85% 30.32 in 3.0 mi Calm Calm - N/A   Clear
9:33 AM -1.5 °F - -5.4 °F 83% 30.33 in 3.0 mi Calm Calm - N/A   Clear
9:53 AM 2.7 °F -4.8 °F -0.9 °F 85% 30.34 in 10.0 mi SSW 3.5 mph - N/A   Clear
10:14 AM 3.7 °F -3.6 °F -0.0 °F 84% 30.34 in 10.0 mi South 3.5 mph - N/A   Clear
10:33 AM 5.2 °F -3.8 °F 1.4 °F 84% 30.35 in 10.0 mi SSW 4.6 mph - N/A   Clear
10:54 AM 6.3 °F -2.6 °F 2.3 °F 84% 30.36 in 10.0 mi SSW 4.6 mph - N/A   Clear
11:14 AM 7.3 °F -1.3 °F 2.3 °F 80% 30.36 in 10.0 mi SSW 4.6 mph - N/A   Clear
11:33 AM 8.1 °F 1.4 °F 1.6 °F 75% 30.35 in 10.0 mi SW 3.5 mph - N/A   Clear
11:54 AM 8.6 °F 0.1 °F 1.9 °F 74% 30.33 in 10.0 mi South 4.6 mph - N/A   Clear
12:13 PM 9.9 °F 0.2 °F 2.3 °F 71% 30.32 in 10.0 mi South 5.8 mph - N/A   Clear
12:34 PM 10.4 °F 0.8 °F 2.7 °F 71% 30.31 in 10.0 mi SSW 5.8 mph - N/A   Scattered Clouds
12:54 PM 12.2 °F - 3.6 °F 68% 30.31 in 10.0 mi North - - N/A   Overcast
1:13 PM 13.1 °F - 4.1 °F 67% 30.31 in 10.0 mi North - - N/A   Scattered Clouds
1:34 PM 14.0 °F 8.2 °F 4.5 °F 66% 30.31 in 10.0 mi WSW 3.5 mph - N/A   Clear
1:53 PM 14.9 °F - 4.8 °F 64% 30.31 in 10.0 mi North - - N/A   Mostly Cloudy
2:14 PM 15.3 °F 4.4 °F 5.5 °F 65% 30.31 in 10.0 mi SW 8.1 mph - N/A   Overcast
2:34 PM 15.4 °F 5.6 °F 5.2 °F 64% 30.31 in 10.0 mi WSW 6.9 mph - N/A   Scattered Clouds
2:53 PM 14.9 °F 5.0 °F 4.6 °F 64% 30.31 in 10.0 mi WSW 6.9 mph - N/A   Clear
3:14 PM 14.9 °F 5.0 °F 4.8 °F 64% 30.32 in 10.0 mi SW 6.9 mph - N/A   Clear
3:34 PM 14.9 °F 7.5 °F 5.2 °F 65% 30.33 in 10.0 mi SW 4.6 mph - N/A   Clear
3:53 PM 15.1 °F - 5.4 °F 65% 30.33 in 10.0 mi North - - N/A   Clear
4:14 PM 14.9 °F 6.1 °F 5.7 °F 67% 30.34 in 10.0 mi SW 5.8 mph - N/A   Clear
4:34 PM 14.7 °F 5.9 °F 5.9 °F 68% 30.34 in 10.0 mi SW 5.8 mph - N/A   Clear
4:53 PM 13.5 °F 5.8 °F 5.5 °F 71% 30.35 in 10.0 mi SSW 4.6 mph - N/A   Clear
5:14 PM 12.6 °F 6.5 °F 4.1 °F 69% 30.35 in 10.0 mi SSW 3.5 mph - N/A   Clear
5:34 PM 10.8 °F 4.5 °F 3.6 °F 73% 30.36 in 10.0 mi SSW 3.5 mph - N/A   Clear
5:53 PM 10.4 °F 4.0 °F 3.7 °F 74% 30.37 in 10.0 mi SW 3.5 mph - N/A   Clear
6:14 PM 9.3 °F 1.0 °F 3.4 °F 77% 30.38 in 10.0 mi SW 4.6 mph - N/A   Scattered Clouds
6:34 PM 8.6 °F -1.3 °F 3.2 °F 79% 30.38 in 10.0 mi SW 5.8 mph - N/A   Scattered Clouds
6:53 PM 7.7 °F -0.9 °F 2.5 °F 79% 30.39 in 10.0 mi SW 4.6 mph - N/A   Scattered Clouds
7:14 PM 6.1 °F -2.8 °F 1.2 °F 80% 30.39 in 10.0 mi WSW 4.6 mph - N/A   Clear
7:34 PM 5.7 °F -1.3 °F 1.2 °F 82% 30.40 in 10.0 mi WSW 3.5 mph - N/A Snow Light Snow
7:53 PM 6.3 °F -0.7 °F 2.1 °F 83% 30.41 in 10.0 mi WSW 3.5 mph - N/A   Overcast
8:14 PM 7.2 °F - 2.8 °F 82% 30.41 in 10.0 mi Calm Calm - N/A   Mostly Cloudy
8:34 PM 5.0 °F - 2.3 °F 89% 30.42 in 10.0 mi Calm Calm - N/A   Mostly Cloudy
8:53 PM 1.4 °F - -0.8 °F 91% 30.43 in 10.0 mi Calm Calm - N/A   Scattered Clouds
9:14 PM -0.8 °F - -3.1 °F 90% 30.43 in 5.0 mi Calm Calm - N/A   Clear
9:34 PM 3.2 °F - 0.7 °F 89% 30.43 in 10.0 mi Calm Calm - N/A   Clear
9:53 PM -3.6 °F - -6.7 °F 87% 30.44 in 5.0 mi Calm Calm - N/A   Clear
10:14 PM -1.1 °F - -4.2 °F 87% 30.45 in 3.0 mi Calm Calm - N/A   Clear
10:34 PM -3.5 °F - -6.7 °F 86% 30.45 in 4.0 mi Calm Calm - N/A   Clear
10:53 PM -2.7 °F - -6.0 °F 86% 30.45 in 10.0 mi Calm Calm - N/A   Clear
11:14 PM -3.8 °F - -7.6 °F 84% 30.46 in 10.0 mi Calm Calm - N/A   Clear
11:34 PM -6.9 °F - -10.7 °F 84% 30.46 in 10.0 mi Calm Calm - N/A Snow Light Snow
11:53 PM -9.0 °F - -13.7 °F 80% 30.46 in 10.0 mi Calm Calm - N/A   Clear